^^
Saratoga-Weather Station Historical Data
Daily Summary for January 1, 2021 Units:  Metric    English   Both
Daily Weekly Monthly Yearly Custom
  High: Low: Average:
Temperature: 23.2 °C 14.8 °C 18.1 °C
Dew Point: 13.7 °C 11.8 °C 12.9 °C
Humidity: 89% 51% 73%
Wind Speed: 24.1km/h 0km/h 5.3km/h
Wind Gust: 24.1km/h - -
Wind- - WNW
Pressure: 1010.5 hPa 1009.1 hPa -
Precipitation: 0.0 mm    
Historical Graphs
 
 
Tabular Data for January 1, 2021
Time Temperature Dew Point Pressure Wind Wind Speed Wind Gust Humidity Rainfall Rate (Hourly) solar
00:00 16.7 °C 13.4 °C 1009.8 hPa Calm   3.2 km/h 81% 0.0 mm 0 W/m2
00:05 16.7 °C 13.6 °C 1009.8 hPa Calm     82% 0.0 mm 0 W/m2
00:10 16.6 °C 13.5 °C 1009.8 hPa Calm     82% 0.0 mm 0 W/m2
00:15 16.6 °C 13.7 °C 1009.8 hPa Calm     83% 0.0 mm 0 W/m2
00:20 16.6 °C 13.7 °C 1009.8 hPa Calm     83% 0.0 mm 0 W/m2
00:26 16.5 °C 13.6 °C 1009.8 hPa Calm     83% 0.0 mm 0 W/m2
00:31 16.4 °C 13.5 °C 1009.8 hPa Calm     83% 0.0 mm 0 W/m2
00:36 16.4 °C 13.5 °C 1009.8 hPa Calm     83% 0.0 mm 0 W/m2
00:41 16.3 °C 13.4 °C 1009.8 hPa Calm     83% 0.0 mm 0 W/m2
00:46 16.2 °C 13.5 °C 1009.8 hPa Calm     84% 0.0 mm 0 W/m2
00:51 16.2 °C 13.5 °C 1009.8 hPa Calm     84% 0.0 mm 0 W/m2
00:56 16.1 °C 13.6 °C 1009.5 hPa Calm     85% 0.0 mm 0 W/m2
01:01 15.9 °C 13.4 °C 1009.8 hPa Calm     85% 0.0 mm 0 W/m2
01:19 15.5 °C 13.2 °C 1009.8 hPa Calm     86% 0.0 mm 0 W/m2
01:24 15.4 °C 13.1 °C 1009.8 hPa Calm     86% 0.0 mm 0 W/m2
01:29 15.3 °C 13.1 °C 1009.8 hPa Calm     87% 0.0 mm 0 W/m2
01:34 15.2 °C 13 °C 1009.5 hPa Calm     87% 0.0 mm 0 W/m2
01:50 14.9 °C 12.9 °C 1009.5 hPa Calm     88% 0.0 mm 0 W/m2
01:55 14.9 °C 12.9 °C 1009.5 hPa Calm     88% 0.0 mm 0 W/m2
02:00 14.9 °C 12.9 °C 1009.5 hPa Calm     88% 0.0 mm 0 W/m2
02:05 14.8 °C 13 °C 1009.5 hPa Calm     89% 0.0 mm 0 W/m2
02:10 14.8 °C 12.8 °C 1009.5 hPa Calm     88% 0.0 mm 0 W/m2
02:15 14.8 °C 13 °C 1009.5 hPa Calm     89% 0.0 mm 0 W/m2
02:20 14.8 °C 13 °C 1009.5 hPa Calm     89% 0.0 mm 0 W/m2
02:25 14.9 °C 13.1 °C 1009.5 hPa WNW 8 km/h 8 km/h 89% 0.0 mm 0 W/m2
02:30 15.2 °C 13.2 °C 1009.1 hPa WNW 1.4 km/h 9.7 km/h 88% 0.0 mm 0 W/m2
02:35 15.4 °C 13.2 °C 1009.1 hPa West 3.2 km/h 3.2 km/h 87% 0.0 mm 0 W/m2
02:40 15.6 °C 13.3 °C 1009.1 hPa WNW 3.2 km/h 9.7 km/h 86% 0.0 mm 0 W/m2
02:46 15.8 °C 13.5 °C 1009.5 hPa WNW 1.4 km/h 6.4 km/h 86% 0.0 mm 0 W/m2
02:51 15.8 °C 13.3 °C 1009.1 hPa West 4.7 km/h 4.8 km/h 85% 0.0 mm 0 W/m2
02:56 15.8 °C 13.5 °C 1009.1 hPa WNW 4.7 km/h 6.4 km/h 86% 0.0 mm 0 W/m2
03:01 15.8 °C 13.3 °C 1009.1 hPa NW 1.4 km/h 4.8 km/h 85% 0.0 mm 0 W/m2
03:06 15.9 °C 13.4 °C 1009.1 hPa WNW 1.4 km/h 6.4 km/h 85% 0.0 mm 0 W/m2
03:11 15.8 °C 13.5 °C 1009.5 hPa NW 3.2 km/h 3.2 km/h 86% 0.0 mm 0 W/m2
03:16 15.7 °C 13.4 °C 1009.5 hPa NW 3.2 km/h 4.8 km/h 86% 0.0 mm 0 W/m2
03:21 15.7 °C 13.4 °C 1009.5 hPa NW 1.4 km/h 3.2 km/h 86% 0.0 mm 0 W/m2
03:26 15.6 °C 13.4 °C 1009.5 hPa Calm   3.2 km/h 87% 0.0 mm 0 W/m2
03:31 15.5 °C 13.3 °C 1009.8 hPa NW 1.4 km/h 3.2 km/h 87% 0.0 mm 0 W/m2
03:36 15.4 °C 13.2 °C 1009.5 hPa NW 1.4 km/h 3.2 km/h 87% 0.0 mm 0 W/m2
03:41 15.4 °C 13.2 °C 1009.5 hPa NW 3.2 km/h 3.2 km/h 87% 0.0 mm 0 W/m2
03:46 15.4 °C 13.2 °C 1009.5 hPa NW 3.2 km/h 3.2 km/h 87% 0.0 mm 0 W/m2
03:51 15.4 °C 13.2 °C 1009.5 hPa West 3.2 km/h 4.8 km/h 87% 0.0 mm 0 W/m2
03:56 15.4 °C 13.2 °C 1009.1 hPa West 1.4 km/h 3.2 km/h 87% 0.0 mm 0 W/m2
04:13 15.5 °C 13.2 °C 1009.1 hPa West 1.4 km/h 3.2 km/h 86% 0.0 mm 0 W/m2
04:18 15.5 °C 13.2 °C 1009.1 hPa West 3.2 km/h 3.2 km/h 86% 0.0 mm 0 W/m2
04:23 15.5 °C 13.2 °C 1009.1 hPa WNW 1.4 km/h 3.2 km/h 86% 0.0 mm 0 W/m2
04:28 15.5 °C 13.2 °C 1009.1 hPa West 3.2 km/h 4.8 km/h 86% 0.0 mm 0 W/m2
04:33 15.5 °C 13.2 °C 1009.1 hPa West 1.4 km/h 3.2 km/h 86% 0.0 mm 0 W/m2
04:38 15.5 °C 13 °C 1009.1 hPa West 1.4 km/h 4.8 km/h 85% 0.0 mm 0 W/m2
04:43 15.5 °C 13 °C 1009.1 hPa West 3.2 km/h 3.2 km/h 85% 0.0 mm 0 W/m2
04:48 15.5 °C 13 °C 1009.1 hPa West 1.4 km/h 3.2 km/h 85% 0.0 mm 0 W/m2
04:53 15.5 °C 13 °C 1009.1 hPa Calm   1.6 km/h 85% 0.0 mm 0 W/m2
04:58 15.6 °C 13.1 °C 1009.1 hPa West 1.4 km/h 1.6 km/h 85% 0.0 mm 0 W/m2
05:03 15.5 °C 13.2 °C 1009.1 hPa Calm     86% 0.0 mm 0 W/m2
05:08 15.5 °C 13.2 °C 1009.1 hPa Calm   1.6 km/h 86% 0.0 mm 0 W/m2
05:24 15.6 °C 13.3 °C 1009.1 hPa Calm   4.8 km/h 86% 0.0 mm 0 W/m2
05:29 15.6 °C 13.3 °C 1009.1 hPa NW 3.2 km/h 4.8 km/h 86% 0.0 mm 0 W/m2
05:34 15.7 °C 13.4 °C 1009.1 hPa West 3.2 km/h 11.3 km/h 86% 0.0 mm 0 W/m2
05:39 15.6 °C 13.3 °C 1009.1 hPa WSW 4.7 km/h 6.4 km/h 86% 0.0 mm 0 W/m2
05:44 15.6 °C 13.3 °C 1009.1 hPa West 3.2 km/h 8 km/h 86% 0.0 mm 0 W/m2
05:49 15.6 °C 13.3 °C 1009.1 hPa West 3.2 km/h 9.7 km/h 86% 0.0 mm 0 W/m2
05:54 15.6 °C 13.3 °C 1009.1 hPa NW 6.4 km/h 6.4 km/h 86% 0.0 mm 0 W/m2
05:59 15.6 °C 13.3 °C 1009.1 hPa WNW 3.2 km/h 4.8 km/h 86% 0.0 mm 0 W/m2
06:04 15.6 °C 13.3 °C 1009.1 hPa NW 3.2 km/h 4.8 km/h 86% 0.0 mm 0 W/m2
06:09 15.5 °C 13.2 °C 1009.1 hPa WNW 4.7 km/h 8 km/h 86% 0.0 mm 0 W/m2
06:26 15.4 °C 13.2 °C 1009.1 hPa WNW 3.2 km/h 6.4 km/h 87% 0.0 mm 0 W/m2
06:31 15.4 °C 13.2 °C 1009.1 hPa West 1.4 km/h 3.2 km/h 87% 0.0 mm 5 W/m2
06:36 15.3 °C 13.3 °C 1009.1 hPa WSW 7.9 km/h 9.7 km/h 88% 0.0 mm 5 W/m2
06:41 15.3 °C 13.3 °C 1009.1 hPa West 3.2 km/h 9.7 km/h 88% 0.0 mm 7 W/m2
06:46 15.2 °C 13.2 °C 1009.1 hPa WNW 6.4 km/h 9.7 km/h 88% 0.0 mm 9 W/m2
06:51 15.2 °C 13.2 °C 1009.1 hPa WSW 4.7 km/h 9.7 km/h 88% 0.0 mm 9 W/m2
06:56 15.2 °C 13.2 °C 1009.1 hPa West 3.2 km/h 8 km/h 88% 0.0 mm 11 W/m2
07:01 15.1 °C 13.1 °C 1009.1 hPa WSW 1.4 km/h 6.4 km/h 88% 0.0 mm 11 W/m2
07:06 15 °C 13 °C 1009.1 hPa West 3.2 km/h 9.7 km/h 88% 0.0 mm 12 W/m2
07:11 15 °C 13 °C 1009.1 hPa WNW 3.2 km/h 6.4 km/h 88% 0.0 mm 14 W/m2
07:16 14.9 °C 12.9 °C 1009.1 hPa WNW 4.7 km/h 9.7 km/h 88% 0.0 mm 16 W/m2
07:21 14.8 °C 12.8 °C 1009.1 hPa West 1.4 km/h 3.2 km/h 88% 0.0 mm 21 W/m2
07:26 14.8 °C 12.8 °C 1009.5 hPa West 1.4 km/h 3.2 km/h 88% 0.0 mm 25 W/m2
07:31 14.8 °C 12.8 °C 1009.5 hPa Calm   1.6 km/h 88% 0.0 mm 28 W/m2
07:36 14.8 °C 13 °C 1009.5 hPa West 1.4 km/h 3.2 km/h 89% 0.0 mm 44 W/m2
07:41 14.8 °C 13 °C 1009.5 hPa Calm     89% 0.0 mm 49 W/m2
07:46 14.8 °C 13 °C 1009.5 hPa Calm     89% 0.0 mm 47 W/m2
07:51 14.9 °C 13.1 °C 1009.5 hPa NW 1.4 km/h 8 km/h 89% 0.0 mm 74 W/m2
07:56 15.1 °C 13.3 °C 1009.5 hPa West 1.4 km/h 4.8 km/h 89% 0.0 mm 79 W/m2
08:01 15.1 °C 13.3 °C 1009.5 hPa Calm   8 km/h 89% 0.0 mm 77 W/m2
08:19 15.7 °C 13.2 °C 1009.8 hPa WNW 3.2 km/h 11.3 km/h 85% 0.0 mm 63 W/m2
08:24 16 °C 13.1 °C 1009.8 hPa West 6.4 km/h 6.4 km/h 83% 0.0 mm 72 W/m2
08:29 16.2 °C 12.9 °C 1009.8 hPa West 4.7 km/h 6.4 km/h 81% 0.0 mm 98 W/m2
08:34 16.4 °C 12.9 °C 1009.8 hPa NW 6.4 km/h 9.7 km/h 80% 0.0 mm 186 W/m2
08:39 16.7 °C 12.8 °C 1009.8 hPa NW 3.2 km/h 9.7 km/h 78% 0.0 mm 174 W/m2
08:44 16.8 °C 12.7 °C 1009.8 hPa WNW 4.7 km/h 8 km/h 77% 0.0 mm 199 W/m2
08:49 16.9 °C 12.8 °C 1009.8 hPa WNW 1.4 km/h 3.2 km/h 77% 0.0 mm 190 W/m2
08:54 16.9 °C 12.4 °C 1010.2 hPa West 9.7 km/h 9.7 km/h 75% 0.0 mm 149 W/m2
08:59 16.8 °C 12.3 °C 1010.2 hPa West 4.7 km/h 8 km/h 75% 0.0 mm 162 W/m2
09:04 16.8 °C 12.5 °C 1010.2 hPa WSW 7.9 km/h 9.7 km/h 76% 0.0 mm 192 W/m2
09:09 16.8 °C 12.3 °C 1010.2 hPa SW 7.9 km/h 14.5 km/h 75% 0.0 mm 244 W/m2
09:14 16.9 °C 12.2 °C 1010.2 hPa NNW 6.4 km/h 14.5 km/h 74% 0.0 mm 279 W/m2
09:19 17.2 °C 12.1 °C 1010.2 hPa WNW 6.4 km/h 9.7 km/h 72% 0.0 mm 299 W/m2
09:24 17.3 °C 12.2 °C 1010.2 hPa West 4.7 km/h 14.5 km/h 72% 0.0 mm 352 W/m2
09:29 17.4 °C 12.3 °C 1010.2 hPa NNW 3.2 km/h 6.4 km/h 72% 0.0 mm 276 W/m2
09:34 17.6 °C 12.5 °C 1010.2 hPa West 3.2 km/h 6.4 km/h 72% 0.0 mm 292 W/m2
09:39 17.6 °C 12.5 °C 1010.2 hPa NW 4.7 km/h 8 km/h 72% 0.0 mm 385 W/m2
09:44 17.6 °C 12.3 °C 1010.2 hPa West 9.7 km/h 12.9 km/h 71% 0.0 mm 471 W/m2
09:49 17.3 °C 12.2 °C 1010.2 hPa WSW 6.4 km/h 9.7 km/h 72% 0.0 mm 383 W/m2
09:54 17.4 °C 12.5 °C 1010.2 hPa WSW 4.7 km/h 11.3 km/h 73% 0.0 mm 84 W/m2
09:59 17.7 °C 12.6 °C 1010.2 hPa West 6.4 km/h 9.7 km/h 72% 0.0 mm 67 W/m2
10:04 17.7 °C 12.4 °C 1010.2 hPa NW 3.2 km/h 4.8 km/h 71% 0.0 mm 536 W/m2
10:09 17.8 °C 12.5 °C 1010.2 hPa Calm   9.7 km/h 71% 0.0 mm 547 W/m2
10:14 18.1 °C 13 °C 1010.2 hPa Calm   6.4 km/h 72% 0.0 mm 563 W/m2
10:19 18.3 °C 12.7 °C 1010.2 hPa NW 16.3 km/h 16.1 km/h 70% 0.0 mm 577 W/m2
10:24 18.4 °C 12.8 °C 1010.2 hPa WNW 9.7 km/h 12.9 km/h 70% 0.0 mm 589 W/m2
10:45 18.8 °C 12.3 °C 1010.2 hPa WNW 11.1 km/h 11.3 km/h 66% 0.0 mm 645 W/m2
10:50 18.9 °C 12.4 °C 1010.2 hPa WNW 4.7 km/h 17.7 km/h 66% 0.0 mm 668 W/m2
10:55 18.9 °C 12.6 °C 1010.2 hPa West 6.4 km/h 11.3 km/h 67% 0.0 mm 675 W/m2
11:00 19.1 °C 12.1 °C 1010.2 hPa West 11.1 km/h 17.7 km/h 64% 0.0 mm 691 W/m2
11:05 19.2 °C 12.5 °C 1010.2 hPa SW 6.4 km/h 14.5 km/h 65% 0.0 mm 712 W/m2
11:10 19.3 °C 12.8 °C 1010.2 hPa WNW 7.9 km/h 16.1 km/h 66% 0.0 mm 770 W/m2
11:15 19.3 °C 12.8 °C 1010.2 hPa NW 7.9 km/h 12.9 km/h 66% 0.0 mm 740 W/m2
11:20 19.6 °C 13.1 °C 1010.5 hPa WNW 11.1 km/h 14.5 km/h 66% 0.0 mm 809 W/m2
11:25 19.4 °C 12.2 °C 1010.5 hPa WNW 4.7 km/h 17.7 km/h 63% 0.0 mm 833 W/m2
11:30 19.5 °C 13.2 °C 1010.5 hPa Calm   11.3 km/h 67% 0.0 mm 896 W/m2
11:35 19.7 °C 12.9 °C 1010.5 hPa WSW 4.7 km/h 17.7 km/h 65% 0.0 mm 165 W/m2
11:40 19.8 °C 12.6 °C 1010.2 hPa WSW 7.9 km/h 11.3 km/h 63% 0.0 mm 207 W/m2
11:45 19.5 °C 12.3 °C 1010.5 hPa WNW 3.2 km/h 12.9 km/h 63% 0.0 mm 211 W/m2
11:50 19.4 °C 12.2 °C 1010.5 hPa SW 7.9 km/h 16.1 km/h 63% 0.0 mm 211 W/m2
11:55 19.5 °C 12.7 °C 1010.5 hPa WNW 6.4 km/h 8 km/h 65% 0.0 mm 842 W/m2
12:00 19.8 °C 12.6 °C 1010.5 hPa WNW 13 km/h 17.7 km/h 63% 0.0 mm 849 W/m2
12:05 20 °C 12.7 °C 1010.2 hPa West 4.7 km/h 6.4 km/h 63% 0.0 mm 962 W/m2
12:10 19.9 °C 12.4 °C 1010.5 hPa West 9.7 km/h 12.9 km/h 62% 0.0 mm 304 W/m2
12:15 19.7 °C 12.5 °C 1010.2 hPa WNW 6.4 km/h 14.5 km/h 63% 0.0 mm 200 W/m2
12:21 19.7 °C 12.5 °C 1010.2 hPa WNW 6.4 km/h 11.3 km/h 63% 0.0 mm 186 W/m2
12:26 19.7 °C 12.5 °C 1010.2 hPa West 3.2 km/h 14.5 km/h 63% 0.0 mm 151 W/m2
12:31 20.1 °C 12.3 °C 1010.2 hPa NW 4.7 km/h 17.7 km/h 61% 0.0 mm 921 W/m2
12:36 20.1 °C 12.3 °C 1010.2 hPa West 4.7 km/h 11.3 km/h 61% 0.0 mm 183 W/m2
12:41 20.2 °C 12.7 °C 1010.2 hPa WSW 9.7 km/h 16.1 km/h 62% 0.0 mm 900 W/m2
12:57 21.1 °C 12.5 °C 1010.2 hPa NW 16.3 km/h 19.3 km/h 58% 0.0 mm 1023 W/m2
13:02 20.7 °C 12.4 °C 1010.2 hPa NW 7.9 km/h 19.3 km/h 59% 0.0 mm 174 W/m2
13:07 20.4 °C 12.1 °C 1010.2 hPa WNW 14.3 km/h 20.9 km/h 59% 0.0 mm 1034 W/m2
13:12 20.7 °C 12.4 °C 1010.2 hPa West 1.4 km/h 12.9 km/h 59% 0.0 mm 371 W/m2
13:17 20.8 °C 12.5 °C 1010.2 hPa WSW 13 km/h 20.9 km/h 59% 0.0 mm 227 W/m2
13:22 20.4 °C 12.4 °C 1010.2 hPa NW 6.4 km/h 17.7 km/h 60% 0.0 mm 197 W/m2
13:27 20.3 °C 12.5 °C 1010.2 hPa West 13 km/h 14.5 km/h 61% 0.0 mm 976 W/m2
13:32 20.6 °C 12.3 °C 1010.2 hPa West 6.4 km/h 16.1 km/h 59% 0.0 mm 654 W/m2
13:37 20.4 °C 12.1 °C 1010.2 hPa West 4.7 km/h 17.7 km/h 59% 0.0 mm 146 W/m2
13:42 20.3 °C 12.3 °C 1010.2 hPa WNW 6.4 km/h 14.5 km/h 60% 0.0 mm 1021 W/m2
13:47 20.8 °C 12.7 °C 1010.2 hPa West 13 km/h 19.3 km/h 60% 0.0 mm 1032 W/m2
13:52 21.1 °C 13.3 °C 1010.2 hPa NNW 13 km/h 14.5 km/h 61% 0.0 mm 933 W/m2
13:57 21.3 °C 12.7 °C 1010.2 hPa SSW 7.9 km/h 14.5 km/h 58% 0.0 mm 956 W/m2
14:02 21.4 °C 12.5 °C 1010.2 hPa West 4.7 km/h 16.1 km/h 57% 0.0 mm 1005 W/m2
14:07 21.5 °C 12.9 °C 1009.8 hPa SW 9.7 km/h 16.1 km/h 58% 0.0 mm 881 W/m2
14:12 21.6 °C 13 °C 1010.2 hPa NNW 7.9 km/h 17.7 km/h 58% 0.0 mm 865 W/m2
14:17 21.4 °C 12.8 °C 1009.8 hPa West 13 km/h 19.3 km/h 58% 0.0 mm 888 W/m2
14:22 21.3 °C 12.4 °C 1009.8 hPa NW 16.3 km/h 20.9 km/h 57% 0.0 mm 891 W/m2
14:27 21.2 °C 12.6 °C 1009.8 hPa West 4.7 km/h 19.3 km/h 58% 0.0 mm 881 W/m2
14:32 20.9 °C 12.3 °C 1009.8 hPa WSW 6.4 km/h 20.9 km/h 58% 0.0 mm 884 W/m2
14:37 20.9 °C 12.6 °C 1009.8 hPa West 16.3 km/h 19.3 km/h 59% 0.0 mm 884 W/m2
14:42 21.1 °C 13 °C 1009.8 hPa West 6.4 km/h 19.3 km/h 60% 0.0 mm 867 W/m2
14:47 21 °C 12.4 °C 1009.8 hPa WSW 13 km/h 20.9 km/h 58% 0.0 mm 889 W/m2
14:52 21.1 °C 12.5 °C 1009.8 hPa WNW 6.4 km/h 24.1 km/h 58% 0.0 mm 911 W/m2
14:57 21.2 °C 12.9 °C 1009.8 hPa WNW 13 km/h 19.3 km/h 59% 0.0 mm 853 W/m2
15:02 21.5 °C 13.1 °C 1009.8 hPa NNW 24.1 km/h 24.1 km/h 59% 0.0 mm 898 W/m2
15:07 21.7 °C 12.8 °C 1009.8 hPa West 13 km/h 19.3 km/h 57% 0.0 mm 849 W/m2
15:12 21.6 °C 13.2 °C 1009.8 hPa West 16.3 km/h 17.7 km/h 59% 0.0 mm 870 W/m2
15:29 21.3 °C 13 °C 1009.8 hPa NW 7.9 km/h 19.3 km/h 59% 0.0 mm 842 W/m2
15:34 21.4 °C 12.8 °C 1009.8 hPa NW 24.1 km/h 24.1 km/h 58% 0.0 mm 805 W/m2
15:39 21.3 °C 12.7 °C 1009.8 hPa West 6.4 km/h 17.7 km/h 58% 0.0 mm 802 W/m2
15:44 21.4 °C 13.1 °C 1009.8 hPa NW 11.1 km/h 14.5 km/h 59% 0.0 mm 865 W/m2
15:49 21.6 °C 12.7 °C 1009.8 hPa West 3.2 km/h 14.5 km/h 57% 0.0 mm 872 W/m2
15:54 21.5 °C 13.1 °C 1009.8 hPa WNW 11.1 km/h 14.5 km/h 59% 0.0 mm 155 W/m2
16:11 22.4 °C 12.3 °C 1009.8 hPa West 11.1 km/h 20.9 km/h 53% 0.0 mm 798 W/m2
16:16 22.2 °C 12.7 °C 1009.8 hPa WNW 11.1 km/h 14.5 km/h 55% 0.0 mm 197 W/m2
16:21 22.2 °C 12.4 °C 1009.8 hPa West 11.1 km/h 20.9 km/h 54% 0.0 mm 838 W/m2
16:26 22.2 °C 12.4 °C 1009.8 hPa West 14.3 km/h 14.5 km/h 54% 0.0 mm 780 W/m2
16:31 22 °C 12.3 °C 1009.8 hPa SW 14.3 km/h 16.1 km/h 54% 0.0 mm 118 W/m2
16:36 21.8 °C 12.1 °C 1009.8 hPa West 9.7 km/h 19.3 km/h 54% 0.0 mm 766 W/m2
16:41 22.1 °C 11.8 °C 1009.8 hPa West 6.4 km/h 20.9 km/h 52% 0.0 mm 763 W/m2
16:46 22.4 °C 12.3 °C 1009.8 hPa WNW 6.4 km/h 12.9 km/h 53% 0.0 mm 744 W/m2
16:51 22.7 °C 12.6 °C 1009.8 hPa NW 1.4 km/h 20.9 km/h 53% 0.0 mm 738 W/m2
17:08 22.7 °C 12.6 °C 1009.8 hPa WNW 6.4 km/h 14.5 km/h 53% 0.0 mm 740 W/m2
17:13 23.1 °C 12.4 °C 1009.8 hPa West 6.4 km/h 19.3 km/h 51% 0.0 mm 712 W/m2
17:18 23.2 °C 12.5 °C 1009.8 hPa NW 6.4 km/h 16.1 km/h 51% 0.0 mm 677 W/m2
17:23 23.2 °C 12.5 °C 1009.8 hPa WSW 6.4 km/h 17.7 km/h 51% 0.0 mm 664 W/m2
17:28 22.9 °C 12.8 °C 1009.8 hPa WNW 17.7 km/h 17.7 km/h 53% 0.0 mm 526 W/m2
17:33 22.8 °C 12.4 °C 1009.8 hPa WSW 3.2 km/h 12.9 km/h 52% 0.0 mm 680 W/m2
17:38 22.9 °C 13.1 °C 1009.8 hPa West 6.4 km/h 9.7 km/h 54% 0.0 mm 663 W/m2
17:43 22.7 °C 12.6 °C 1009.8 hPa WSW 16.3 km/h 16.1 km/h 53% 0.0 mm 125 W/m2
18:00 22.7 °C 12.3 °C 1009.8 hPa West 6.4 km/h 9.7 km/h 52% 0.0 mm 628 W/m2
18:05 23.1 °C 13 °C 1009.8 hPa NNW 6.4 km/h 11.3 km/h 53% 0.0 mm 554 W/m2
18:10 22.8 °C 12.7 °C 1009.8 hPa West 4.7 km/h 11.3 km/h 53% 0.0 mm 195 W/m2
18:30 21.5 °C 12.4 °C 1009.8 hPa WSW 11.1 km/h 17.7 km/h 56% 0.0 mm 172 W/m2
18:35 21.3 °C 12.2 °C 1009.8 hPa West 9.7 km/h 12.9 km/h 56% 0.0 mm 167 W/m2
18:40 21.2 °C 12.1 °C 1009.8 hPa West 9.7 km/h 17.7 km/h 56% 0.0 mm 171 W/m2
18:45 21.2 °C 12.3 °C 1009.8 hPa West 6.4 km/h 12.9 km/h 57% 0.0 mm 190 W/m2
Juneau County Weather
Compliments of Weather Underground - 2 mb